Regional Weather Roundup
Issued by NWS

Home | Current Version | Previous Version | Graphics & Text | Print | Product List | Glossary Off
Versions: 1 2 3 4 5 6 7 8 9 10 11 12 13 14 15 16 17 18 19 20 21 22 23 24 25 26 27 28 29 30 31 32 33 34 35 36 37 38 39 40 41 42 43 44 45 46 47 48 49 50

000
ASUS43 KTOP 300608
RWRKS

WEATHER ROUNDUP FOR KANSAS
NATIONAL WEATHER SERVICE GOODLAND KS
100 AM CDT THU JUL 30 2015

NOTE:  "FAIR" INDICATES FEW OR NO CLOUDS BELOW 12,000 FEET WITH NO
SIGNIFICANT WEATHER AND/OR OBSTRUCTIONS TO VISIBILITY.

KSZ001>006-013>018-027>032-041>047-300700-
NORTHWEST KANSAS

CITY           SKY/WX    TMP DP  RH WIND       PRES   REMARKS
GOODLAND       CLEAR     58  53  84 SE5       30.29S
6HR MIN TEMP:  58; 6HR MAX TEMP:  80;

HAYS           PTCLDY    70  55  60 E6        30.22R
HILL CITY      CLEAR     63  59  87 NE3       30.24S
6HR MIN TEMP:  63; 6HR MAX TEMP:  83;

RUSSELL        CLEAR     66  60  81 E6        30.19F
6HR MIN TEMP:  66; 6HR MAX TEMP:  82;

$$

KSZ061>065-074>080-084>089-300700-
SOUTHWEST KANSAS

CITY           SKY/WX    TMP DP  RH WIND       PRES   REMARKS
DODGE CITY     MOCLDY    70  66  87 SE7       30.24R
6HR MIN TEMP:  69; 6HR MAX TEMP:  79;

ELKHART          N/A     68  63  84 E5          N/A
GARDEN CITY    CLEAR     68  64  87 E7        30.25R
6HR MIN TEMP:  68; 6HR MAX TEMP:  79;

GREAT BEND     PTCLDY    73  66  78 E6        30.20S
LIBERAL        CLEAR     72  63  73 E9        30.24R
PRATT          PTCLDY    72  66  83 E6        30.21S
$$

KSZ066>073-081>083-090>101-300700-
SOUTHEAST KANSAS

CITY           SKY/WX    TMP DP  RH WIND       PRES   REMARKS
CHANUTE        CLOUDY    77  67  71 NE8       30.15F
6HR MIN TEMP:  77; 6HR MAX TEMP:  84;

COFFEYVILLE    PTCLDY    78  67  68 NE6       30.13S
6HR MIN TEMP:  78; 6HR MAX TEMP:  87;

HUTCHINSON     PTCLDY    74  67  78 NE6       30.18S
6HR MIN TEMP:  72; 6HR MAX TEMP:  82;

MEDICINE LODGE   N/A     73  70  90 NE6       30.17R
PARSONS        MOCLDY    78  68  71 VRB3      30.16R
6HR MIN TEMP:  78; 6HR MAX TEMP:  87;

WICHITA INTL   PTCLDY    76  69  79 NE8       30.16S
6HR MIN TEMP:  76; 6HR MAX TEMP:  79;

WICHITA JABRA  CLEAR     72  69  90 E6        30.17S
6HR MIN TEMP:  72; 6HR MAX TEMP:  78;

WICHITA MCCONL CLEAR     75  68  79 E7        30.16S
WINFIELD       PTCLDY    77  68  73 E10       30.16R
6HR MIN TEMP:  72; 6HR MAX TEMP:  78;

$$

KSZ007>012-019>026-033>040-048>060-102>105-300700-
NORTHEAST KANSAS

CITY           SKY/WX    TMP DP  RH WIND       PRES   REMARKS
CONCORDIA      CLEAR     66  62  87 CALM      30.20S
6HR MIN TEMP:  66; 6HR MAX TEMP:  81;

EMPORIA        CLEAR     71  67  87 NE3       30.18S
6HR MIN TEMP:  71; 6HR MAX TEMP:  81;

LAWRENCE       CLEAR     67  64  90 CALM      30.17S
6HR MIN TEMP:  67; 6HR MAX TEMP:  83;

MANHATTAN      CLEAR     66  65  96 CALM      30.18S
6HR MIN TEMP:  66; 6HR MAX TEMP:  81;

MARYSVILLE     CLEAR     64  64 100 CALM      30.19F
OLATHE IND     CLEAR     70  67  90 CALM      30.18S
6HR MIN TEMP:  70; 6HR MAX TEMP:  81;

OLATHE EXE     CLEAR     71  66  84 NE5       30.17S
6HR MIN TEMP:  71; 6HR MAX TEMP:  83;

SALINA         MOCLDY    73  65  75 SE6       30.18S
6HR MIN TEMP:  73; 6HR MAX TEMP:  83;

TOPEKA BILLARD CLEAR     68  67  96 CALM      30.18R
6HR MIN TEMP:  68; 6HR MAX TEMP:  83;

TOPEKA FORBES  CLEAR     70  65  84 CALM      30.18R
6HR MIN TEMP:  70; 6HR MAX TEMP:  84;

$$



USA.gov is the U.S. government's official web portal to all federal, state and local government web resources and services.